STARLINK-34587, 64735

Orbit data source: Space-Track

STARLINK-34587, 64735 is a payload satellite owned by SpaceX/Seattle (US) in LEO that was launched on Wed, 02 Jul 2025 UTC via an FALCON 9 launch vehicle from the Air Force Eastern Test Range (AFETR). Payload-class satellites include a variety of spacecraft equipped with specific instruments for various scientific and technological missions. These include communications satellites like Starlink; space stations such as the ISS; scientific satellites like the Hubble; Earth observation satellites from companies like Planet Labs, Umbra, and HawkEye 360; GPS; miniature CubeSats for education and research; and military/defense satellites.

Loading next visibility...
Identifier
64735, 2025-144M
Orbit
LEO
Country
Flag of USUS
Related business
Manufacturer
SpaceX/Seattle
Mission
Operational Commercial Communications
Bus & Motor
STARLINK V2MO, Unknown motor
Mass
575 kg wet, ~530 kg dry
Launch date (UTC)
2025-07-02 (1 year ago)
Launch vehicle
FALCON 9
Launch site
Air Force Eastern Test Range (AFETR)
Object type
Payload
Rocket body
Debris
Shape & HBR
Box + 2 Pan, 17.7 m
Radar Cross Section
36.964 m², Large (>1 m²)

Expand to show TLE details & history
Last TLE update: 22 hours ago

TLE from 22 hours ago
0 STARLINK-34587
1 64735U 25144M   26170.93349242  .00012998  00000-0  45005-3 0  9999
2 64735  53.1584  66.2938 0001304  92.0080 268.1070 15.30210322 55311
Epoch: 2026-06-19T22:24Z
TLE epoch observation values (Epoch: 2026-06-19T22:24:13.745Z)
Latitude
-0.00001°
Longitude
-177.91884°
Altitude
476.113 km
Speed
7.629 km/s
True Right ascension
04h 25m 10s
True Declination
0° 00' 00"
Sunlit
Object was in daylight at epoch
Visualization orbit readout
Latitude
Unknown
Longitude
Unknown
Altitude
Unknown
Speed
Unknown
Apparent Right ascension
Unknown
Apparent Declination
Unknown
Sunlit
N/A
Visualization observer readout
Local Sidereal Time
07:20:56
Azimuth
Unknown
Elevation
Unknown
Doppler factor
Unknown
Orbital elements
Apogee altitude
476.335 km
Perigee altitude
474.547 km
Semi-major axis
6,853.578 km
Eccentricity
0.00013
Inclination
53.1584°
RAAN
66.2938°
Arg. of periapsis
92.008°
True anomaly
268.09207°
Mean anomaly
268.107°
Eccentric anomaly
268.09953°
Mean motion
3.82531 °/min
Orbital period
94.11 mins
BSTAR
0.00045005
Loading maneuver chart data...
Computing Atmospheric mass density...
Loading historical data...
Loading historical data...
Loading historical data...
Loading historical data...
Loading historical data...
Loading historical data...
Loading historical data...

Documentation

Showing up to 5 results
|